Temperature
15 15 15 15 15 15 15 15 15 15 15 15 15 15 15 15 15 14 15 15 15 15 15 15 15 15 15 15 15 15 15 15 15 15 15 15 15 15 15 15 15 15 15
15 15 15 15 15 15 15 15 15 15 15 15 15 14 14 14 14 14 14 14 15 15 15 15 15 15 15 15 15 15 15 15 15 14 14 14 14 14 14 14 14 14 14
15 15 15 15 15 15 15 15 14 14 14 14 14 14 14 14 14 14 14 14 14 14 14 14 14 14 14 14 14 14 14 14 14 14 14 14 14 14 14 14 14 14 14
15 15 15 15 14 14 14 14 14 14 14 14 14 14 14 14 14 14 14 14 14 14 14 14 14 14 14 14 14 14 14 14 14 14 14 14 14 14 14 14 14 14 14
15 15 15 14 14 14 14 14 14 14 14 14 14 14 14 14 14 13 13 13 13 13 13 14 14 14 14 14 14 13 13 14 13 14 14 14 14 14 14 14 14 14 14
15 15 14 14 14 14 14 14 14 14 14 14 14 14 13 13 13 13 13 13 13 13 13 13 13 13 13 13 13 13 13 13 13 13 13 13 13 13 14 14 13 13 13
14 14 14 14 14 14 14 14 14 14 13 13 14 13 13 13 13 13 13 13 13 13 13 13 13 13 13 13 13 13 13 13 13 13 13 13 13 13 13 13 13 13 13
14 14 14 14 14 14 14 14 14 13 13 13 13 14 14 13 13 13 13 13 13 13 13 12 12 12 13 13 13 13 13 13 13 13 13 13 13 13 13 13 13 13 13
14 14 14 14 14 14 14 14 13 13 13 13 13 13 14 14 13 13 13 13 13 13 13 12 12 12 12 12 12 12 13 12 12 12 12 13 12 12 12 12 12 12 12
14 14 14 14 14 13 13 13 13 13 13 13 13 13 13 13 13 13 13 13 12 12 12 12 12 12 12 12 12 12 12 12 12 12 12 12 12 12 12 12 12 12 12
14 14 14 14 14 13 13 13 13 13 13 13 13 13 13 13 13 13 13 12 12 12 12 12 12 12 11 12 12 12 12 12 12 12 12 12 12 12 12 12 12 12 12
14 14 14 14 13 13 13 13 13 13 13 13 13 13 13 13 13 13 13 12 12 12 12 12 11 12 12 11 11 12 12 12 12 12 12 12 12 12 11 11 11 11 11
14 14 14 13 13 13 13 13 13 13 13 13 13 13 13 13 13 13 13 13 12 12 12 11 11 11 11 11 11 11 11 11 11 11 11 11 11 11 11 11 11 11 11
14 14 14 13 13 13 13 13 13 13 13 13 13 13 13 13 13 13 12 12 12 12 12 12 11 11 11 11 11 11 11 11 11 11 11 11 11 11 11 11 11 11 11
14 13 13 13 13 13 13 13 13 13 13 13 13 13 13 13 13 12 12 12 12 13 12 12 11 11 11 11 11 10 10 11 11 11 11 11 11 11 11 11 11 10 10
14 13 13 13 13 13 13 13 13 13 13 13 13 13 13 13 13 12 12 12 12 12 12 12 11 11 11 11 11 10 10 11 11 11 11 11 11 11 11 11 10 10 10
13 13 13 13 13 13 13 13 13 13 13 13 13 13 13 12 12 12 12 12 12 12 12 11 11 11 11 11 11 10 10 10 10 11 11 11 11 11 10 10 10 10 10
13 13 13 13 13 13 13 12 13 12 12 12 12 12 12 12 12 12 12 12 12 12 12 11 11 11 10 10 10 10 10 10 10 10 10 10 10 10 10 10 10 10 10
13 13 13 13 13 12 12 12 12 12 12 12 12 12 12 12 12 12 12 12 11 11 11 11 11 11 10 10 10 10 10 10 10 10 10 10 10 10 10 10 10 10 10
13 13 13 13 12 12 12 12 12 12 12 12 12 12 12 12 12 12 12 12 11 11 11 11 11 10 10 10 10 10 10 10 10 10 10 10 10 10 10 10 10 10 10
12 12 12 12 12 12 12 12 12 12 12 12 12 12 12 12 12 12 11 11 11 11 11 11 11 10 10 10 10 10 10 9 9 9 9 9 9 9 9 9 10 10 9
12 12 12 12 12 12 12 12 12 12 12 12 12 12 12 12 12 12 12 11 11 11 11 11 11 10 10 10 10 10 9 9 9 9 9 9 9 8 8 9 9 9 9
12 12 12 12 12 12 12 12 12 12 11 11 11 11 11 11 11 11 11 11 11 11 11 10 10 10 10 10 10 9 9 9 9 9 9 8 8 8 8 9 9 9 9
12 12 12 12 12 12 12 12 12 11 11 11 11 11 11 11 11 11 11 11 11 11 11 10 10 10 10 10 9 9 9 9 9 9 9 8 8 8 8 8 9 9 9
11 11 11 11 11 11 11 11 11 11 11 11 11 11 11 11 11 11 10 10 10 10 10 10 10 10 10 10 9 9 9 8 8 8 8 8 8 8 8 8 8 8 8
11 11 11 11 11 11 11 11 11 10 10 10 10 10 10 10 10 10 10 10 10 10 10 10 10 10 9 9 9 9 9 8 8 8 8 8 8 7 7 7 7 8 8
Wind_Speed
4 4 4 5 5 5 5 5 5 6 6 7 7 7 7 8 7 7 8 12 12 11 11 10 9 8 9 8 7 6 6 6 6 6 6 6 6 5 4 4 3 3 2
4 4 5 5 5 5 5 5 6 6 6 6 7 7 7 7 8 8 8 9 12 12 13 12 10 10 10 9 8 8 8 8 7 7 7 7 6 6 6 5 4 4 4
3 4 4 4 4 4 5 5 6 5 6 5 6 7 7 7 7 8 8 7 8 12 13 12 11 10 10 11 11 11 10 9 8 8 7 7 7 6 5 5 5 4 4
4 4 3 4 4 4 4 4 4 5 5 5 5 6 6 6 7 8 8 8 7 7 10 12 12 11 10 10 10 10 10 10 9 9 8 8 7 7 6 6 5 5 5
4 4 3 3 4 3 3 4 4 4 5 5 5 5 5 5 6 7 7 8 8 7 8 10 11 12 11 11 11 10 10 10 10 9 8 8 8 7 7 7 6 6 6
3 3 3 2 3 3 3 3 4 4 4 4 5 5 5 5 5 5 6 6 7 8 8 8 7 10 12 12 11 11 10 10 10 10 9 8 8 8 8 8 8 8 7
3 3 2 2 2 2 3 3 4 4 3 3 3 4 4 4 5 4 4 4 5 6 7 7 7 7 7 10 11 11 11 11 11 11 10 9 8 8 8 8 8 8 8
2 2 2 2 2 2 2 3 2 1 2 1 1 0 1 2 3 3 3 3 4 5 5 6 6 6 6 6 10 11 11 11 10 10 10 9 9 9 9 8 8 8 8
1 1 1 1 1 1 2 1 1 1 1 1 1 1 1 1 1 2 2 2 3 3 3 4 5 5 6 6 7 10 10 10 10 10 9 9 9 9 8 8 7 8 8
2 1 1 1 1 1 2 1 0 0 1 1 1 1 2 1 0 1 1 2 2 2 2 2 3 4 4 5 7 9 9 9 9 9 9 8 8 8 8 7 7 7 8
1 2 1 1 1 1 1 1 1 0 0 0 0 1 1 1 1 0 1 1 1 1 1 1 2 3 3 4 5 8 8 8 9 9 9 9 8 8 7 7 7 8 8
1 1 2 2 2 2 2 2 1 1 1 1 1 0 1 1 1 1 1 1 0 1 1 1 1 1 2 3 5 7 7 7 8 8 9 9 9 9 9 8 8 8 8
1 1 2 2 2 2 2 2 2 2 2 2 2 1 1 0 1 1 1 1 1 0 0 1 1 1 1 1 3 4 5 6 7 8 8 9 9 9 9 9 9 9 9
1 2 2 2 2 3 3 3 3 3 2 2 2 1 1 1 1 1 1 1 1 1 1 1 1 1 1 1 3 2 3 4 5 6 6 7 8 8 8 8 8 9 9
2 2 3 3 3 3 4 3 3 3 2 2 2 2 2 1 2 2 2 3 2 2 2 1 1 1 1 1 2 2 2 4 3 3 4 5 6 6 6 6 7 7 7
2 3 4 4 4 4 4 4 4 3 3 2 2 3 2 2 2 2 2 2 3 3 2 1 1 1 1 1 2 2 2 3 3 2 2 3 3 4 4 5 5 5 6
3 3 4 4 4 4 4 4 4 4 4 4 3 3 3 3 3 3 3 2 2 2 3 2 1 2 2 2 2 2 2 2 2 3 1 1 2 3 3 4 4 5 5
3 4 4 4 4 5 4 4 5 5 4 4 4 3 3 3 3 3 2 3 2 2 3 3 2 2 2 1 2 2 2 2 1 3 2 1 1 2 2 3 3 3 4
4 4 4 5 5 5 5 5 5 5 5 5 4 4 4 4 4 3 3 3 2 2 2 3 3 2 2 2 2 2 2 2 2 3 3 2 1 1 1 1 2 2 3
4 4 5 5 5 5 5 5 5 5 5 5 5 4 4 4 4 4 4 3 3 3 3 3 3 3 3 3 3 2 2 2 2 2 2 2 2 2 2 1 1 1 1
4 4 4 5 5 4 4 5 5 5 5 5 5 4 4 2 1 3 3 4 4 3 3 3 4 3 4 4 3 3 3 2 2 2 2 2 2 2 2 3 3 2 1
4 4 5 5 5 4 2 3 5 6 5 5 5 5 4 4 4 5 4 4 5 5 4 4 4 5 5 4 3 3 3 3 2 2 2 2 2 2 1 1 1 3 3
4 4 5 4 5 4 3 4 5 5 5 5 5 5 4 4 5 5 6 6 6 5 5 5 5 5 5 4 4 4 4 4 3 2 3 3 2 2 1 1 2 4 4
5 5 5 5 5 4 4 5 5 6 6 6 6 6 5 5 5 5 5 6 5 6 6 6 5 5 4 4 5 4 4 3 3 3 4 3 2 2 2 2 4 4 5
5 5 5 5 6 5 5 5 6 5 6 6 6 6 6 6 4 4 6 6 5 4 5 5 4 2 2 4 5 4 4 4 4 3 4 3 3 2 3 3 3 6 6
6 5 5 6 6 6 5 6 7 6 6 5 5 6 5 5 5 6 7 6 6 5 4 5 5 5 6 7 8 7 5 5 4 3 4 4 3 2 3 3 3 3 5
Wind_Direction
68 69 68 62 59 61 62 53 63 77 70 65 62 58 56 57 62 65 69 59 54 57 59 65 69 73 71 72 70 69 65 66 64 60 60 57 58 54 54 58 46 41 37
77 71 68 61 59 57 56 58 64 72 69 66 64 60 55 55 59 63 65 69 64 58 56 58 64 69 69 68 70 68 64 63 60 59 61 57 53 50 49 50 49 53 50
75 73 69 69 69 70 69 63 65 65 70 71 70 63 58 53 56 60 59 57 65 65 57 55 60 66 67 66 64 59 56 56 55 55 55 53 52 53 49 46 46 53 52
67 71 71 73 77 74 72 69 64 67 70 69 67 63 63 62 59 55 56 55 52 54 61 58 57 61 66 64 64 59 55 53 53 52 51 51 50 50 49 48 48 51 54
70 80 73 78 85 78 73 73 70 70 72 70 69 65 63 61 60 57 54 52 55 53 55 64 62 58 61 61 60 57 56 53 50 51 51 50 48 47 46 47 48 51 56
70 82 92 93 92 87 82 84 87 79 76 75 75 68 65 66 63 58 53 52 51 52 51 51 57 65 61 57 54 52 54 53 49 47 46 47 49 50 49 51 52 54 55
76 81 82 80 85 88 94 103 105 106 100 91 90 85 82 73 65 59 55 54 55 51 53 52 49 50 61 62 55 51 52 50 47 46 45 47 50 53 52 50 51 51 53
90 92 100 99 98 91 100 105 121 115 99 77 12 77 107 104 69 60 63 61 54 55 51 49 49 49 47 51 59 52 50 47 47 46 46 51 52 55 53 49 50 53 54
117 118 106 117 112 115 109 123 144 137 122 90 8 341 348 86 88 91 65 66 62 54 50 48 48 51 48 49 52 56 49 44 45 45 47 53 54 54 49 48 47 53 52
143 142 136 145 144 135 142 150 111 242 211 155 92 18 17 73 199 128 105 77 65 56 44 48 47 49 50 54 57 52 48 42 40 41 45 51 52 50 45 47 49 56 58
158 168 169 177 185 174 177 174 178 269 192 217 79 97 84 118 212 189 136 88 73 66 59 41 46 48 47 52 54 58 51 45 42 40 43 49 50 46 44 50 56 59 61
182 187 208 205 203 205 190 201 201 209 238 221 259 193 165 165 173 170 211 188 85 58 79 83 50 58 58 58 63 62 56 49 47 43 40 44 45 45 45 48 58 63 62
207 206 220 221 216 212 200 204 215 224 219 223 235 239 243 242 206 194 199 214 242 217 113 162 93 81 87 88 88 83 77 62 54 50 44 44 45 44 46 47 51 54 55
237 234 227 228 220 212 209 206 226 225 234 228 229 224 226 215 197 197 217 215 235 243 228 197 125 113 98 111 93 135 103 87 64 57 50 47 46 47 47 46 48 48 47
240 235 239 241 231 227 225 220 230 226 234 245 245 229 224 207 212 219 224 234 245 247 245 204 180 120 134 118 134 180 134 100 82 67 58 54 51 50 47 45 45 45 43
249 243 239 238 235 232 226 226 236 236 234 232 239 240 226 219 217 219 231 246 253 252 252 205 216 178 162 184 162 197 125 113 125 104 73 61 61 54 48 44 45 47 46
250 248 246 246 237 232 229 222 232 226 231 228 224 229 223 216 218 213 220 236 239 240 232 224 194 185 196 195 167 183 171 175 133 124 107 71 70 60 47 40 41 42 42
258 254 250 244 235 231 232 233 230 225 229 235 235 229 227 209 219 218 220 232 231 230 227 221 213 202 221 187 173 183 180 172 149 120 131 123 109 80 60 49 46 43 42
249 248 241 240 237 233 227 228 227 228 228 233 234 231 229 222 220 217 226 231 229 227 219 219 220 205 220 197 187 184 185 177 180 155 165 179 160 118 91 76 60 52 48
245 244 240 240 238 235 230 229 229 234 234 233 232 232 230 233 232 228 228 229 226 221 212 217 215 208 210 204 207 198 197 202 220 195 176 174 169 180 178 171 154 93 58
249 244 240 237 235 237 238 240 234 235 237 233 227 224 221 224 271 242 239 232 224 225 217 217 219 216 211 205 215 213 217 217 230 222 216 206 201 204 186 189 200 202 196
250 243 242 240 238 234 215 249 255 238 236 234 231 227 219 208 206 215 225 236 237 232 227 224 226 225 222 215 215 223 219 223 237 211 240 239 229 239 234 229 168 202 211
244 244 241 240 243 228 188 215 246 252 239 236 236 233 225 218 210 220 205 208 219 230 241 242 235 232 226 217 216 228 235 242 257 225 230 243 229 240 214 181 192 209 212
240 242 240 238 242 229 192 205 229 238 240 237 234 233 230 222 212 225 220 219 224 219 221 234 244 241 231 217 221 231 236 238 245 222 223 245 232 241 231 208 191 204 209
236 240 237 237 243 235 201 207 229 235 234 235 232 232 233 231 178 211 226 224 224 221 205 235 279 268 208 197 199 205 211 220 238 232 218 241 246 249 246 228 195 201 211
230 234 235 236 239 241 207 207 231 237 235 233 231 229 222 238 188 197 223 227 228 228 220 213 222 208 203 190 196 214 216 229 242 238 208 227 236 243 248 231 220 211 207
Height
1538 1538 1537 1536 1536 1535 1533 1531 1528 1528 1530 1531 1532 1531 1531 1530 1530 1531 1531 1530 1530 1530 1530 1529 1529 1528 1528 1527 1527 1527 1527 1527 1527 1526 1525 1525 1524 1524 1524 1524 1524 1524 1524
1539 1539 1539 1537 1537 1536 1535 1533 1531 1531 1531 1532 1532 1532 1532 1532 1532 1532 1532 1532 1531 1531 1530 1530 1530 1529 1528 1528 1527 1527 1527 1526 1526 1525 1525 1525 1524 1524 1524 1524 1524 1523 1523
1541 1540 1540 1539 1538 1537 1536 1535 1534 1533 1533 1533 1534 1533 1533 1533 1533 1533 1533 1533 1533 1532 1531 1531 1530 1529 1529 1528 1528 1527 1527 1526 1526 1525 1525 1524 1524 1524 1524 1523 1523 1523 1522
1542 1541 1541 1540 1539 1538 1538 1537 1536 1535 1535 1535 1535 1535 1535 1534 1535 1535 1534 1534 1533 1533 1532 1532 1531 1530 1530 1529 1528 1527 1527 1527 1526 1525 1525 1524 1524 1523 1523 1523 1522 1522 1522
1542 1542 1541 1541 1540 1539 1539 1538 1538 1538 1537 1537 1537 1536 1536 1536 1536 1536 1535 1535 1534 1534 1533 1533 1532 1531 1530 1529 1529 1528 1528 1527 1526 1525 1525 1524 1523 1523 1522 1522 1522 1522 1521
1543 1542 1542 1541 1541 1540 1540 1539 1539 1538 1538 1538 1538 1538 1538 1538 1537 1537 1537 1536 1536 1535 1534 1534 1533 1532 1531 1530 1530 1529 1528 1527 1526 1525 1524 1523 1523 1522 1522 1522 1521 1521 1520
1543 1543 1542 1542 1541 1541 1541 1540 1540 1540 1540 1540 1540 1540 1540 1539 1539 1538 1538 1538 1537 1536 1535 1535 1534 1533 1533 1531 1530 1529 1529 1528 1527 1525 1524 1523 1523 1523 1522 1522 1521 1521 1520
1544 1543 1543 1542 1541 1541 1541 1541 1540 1541 1540 1540 1541 1540 1541 1542 1540 1540 1539 1539 1538 1537 1537 1536 1536 1535 1534 1533 1531 1530 1529 1528 1527 1526 1525 1524 1523 1523 1523 1522 1521 1521 1520
1544 1543 1543 1542 1542 1542 1541 1541 1541 1541 1541 1541 1541 1541 1541 1541 1542 1542 1540 1540 1539 1538 1538 1538 1537 1536 1535 1534 1533 1531 1530 1529 1528 1527 1525 1525 1524 1523 1523 1522 1522 1521 1520
1543 1543 1543 1542 1542 1542 1541 1541 1541 1541 1541 1542 1541 1541 1542 1541 1541 1542 1542 1541 1540 1539 1539 1538 1538 1537 1536 1535 1534 1533 1531 1530 1529 1527 1526 1525 1525 1524 1523 1523 1522 1521 1520
1543 1543 1542 1542 1542 1541 1541 1541 1541 1541 1541 1541 1541 1541 1541 1540 1541 1541 1541 1542 1541 1540 1539 1539 1538 1537 1536 1536 1535 1533 1532 1531 1530 1528 1527 1526 1525 1524 1524 1522 1522 1521 1520
1542 1542 1541 1541 1541 1541 1541 1541 1540 1540 1540 1540 1540 1541 1541 1541 1540 1540 1540 1540 1540 1540 1539 1539 1538 1537 1537 1536 1535 1534 1533 1531 1530 1529 1528 1527 1525 1525 1524 1523 1522 1521 1520
1542 1541 1541 1540 1540 1540 1540 1539 1539 1539 1539 1539 1540 1540 1540 1540 1539 1540 1539 1539 1539 1540 1539 1539 1538 1537 1536 1536 1535 1534 1533 1532 1531 1530 1528 1527 1526 1525 1524 1523 1522 1522 1521
1540 1540 1539 1539 1539 1538 1538 1538 1538 1538 1539 1539 1539 1538 1538 1538 1538 1538 1539 1539 1539 1539 1539 1539 1538 1537 1536 1535 1534 1534 1533 1532 1531 1530 1529 1527 1527 1526 1525 1524 1523 1522 1521
1538 1538 1538 1538 1537 1537 1537 1537 1537 1537 1537 1537 1538 1537 1537 1537 1537 1537 1537 1537 1538 1538 1538 1538 1537 1536 1535 1535 1534 1534 1533 1532 1531 1530 1529 1528 1527 1526 1525 1524 1523 1522 1522
1537 1536 1536 1536 1536 1535 1535 1535 1535 1535 1536 1536 1535 1536 1536 1536 1535 1535 1535 1535 1536 1536 1536 1536 1535 1535 1534 1533 1533 1532 1532 1531 1530 1530 1529 1528 1527 1526 1525 1524 1523 1522 1522
1534 1534 1534 1533 1533 1533 1534 1533 1533 1533 1534 1534 1534 1534 1534 1534 1534 1534 1534 1534 1534 1534 1533 1534 1533 1533 1532 1532 1532 1531 1531 1530 1530 1529 1528 1527 1526 1526 1525 1524 1523 1522 1521
1532 1531 1531 1531 1531 1531 1531 1531 1531 1531 1532 1532 1532 1532 1532 1532 1532 1532 1532 1532 1532 1532 1532 1531 1531 1531 1531 1531 1530 1530 1529 1529 1529 1528 1527 1526 1526 1525 1524 1523 1522 1522 1521
1528 1528 1528 1528 1528 1528 1528 1528 1529 1529 1529 1530 1530 1530 1530 1530 1530 1530 1530 1530 1530 1530 1529 1529 1529 1529 1529 1529 1528 1528 1528 1528 1527 1527 1526 1525 1525 1524 1523 1522 1522 1521 1520
1525 1525 1525 1525 1525 1525 1525 1526 1526 1527 1527 1527 1527 1527 1528 1528 1528 1528 1528 1528 1528 1528 1527 1527 1527 1527 1527 1527 1527 1527 1527 1526 1526 1525 1524 1524 1523 1522 1522 1521 1520 1520 1519
1522 1521 1521 1521 1522 1522 1522 1523 1523 1524 1524 1524 1525 1525 1525 1524 1524 1525 1525 1525 1525 1525 1525 1525 1525 1525 1525 1525 1525 1525 1525 1525 1524 1524 1523 1523 1522 1521 1520 1519 1519 1518 1518
1518 1518 1518 1518 1518 1519 1518 1519 1519 1520 1521 1521 1521 1522 1522 1521 1521 1521 1522 1522 1522 1523 1523 1523 1523 1523 1523 1523 1523 1523 1523 1523 1523 1522 1522 1521 1521 1520 1519 1518 1517 1516 1516
1515 1514 1514 1514 1515 1515 1515 1515 1516 1516 1517 1518 1518 1519 1518 1518 1518 1518 1519 1519 1519 1519 1520 1520 1520 1520 1520 1520 1520 1520 1520 1521 1520 1520 1519 1519 1519 1518 1517 1515 1515 1514 1514
1511 1511 1511 1511 1511 1511 1512 1512 1512 1513 1513 1514 1514 1515 1515 1515 1515 1515 1515 1516 1516 1516 1516 1517 1518 1518 1518 1517 1517 1518 1517 1518 1518 1517 1517 1517 1516 1515 1514 1513 1512 1512 1511
1507 1507 1507 1507 1507 1508 1508 1508 1509 1509 1510 1510 1510 1510 1511 1511 1511 1511 1512 1513 1513 1513 1513 1513 1513 1514 1513 1514 1514 1514 1514 1515 1515 1515 1514 1514 1514 1513 1512 1511 1510 1509 1508
1503 1503 1503 1503 1504 1504 1504 1504 1505 1505 1506 1506 1506 1506 1506 1507 1507 1508 1509 1509 1509 1509 1509 1509 1510 1510 1510 1510 1511 1511 1511 1512 1512 1512 1511 1511 1511 1510 1509 1508 1507 1506 1506